Challenge de la Province de Liège

Huy Night Run (2.20 km)

vendredi 01 juin 2018

Vous pouvez trouver Le classement original sur : www.otopservices.be  
CHALLENGE DE LA PROVINCE DE LIEGE
HUY NIGHT RUN
DISTANCE : 2.20 km
vendredi 01 juin 2018
 
Place dos NOM Catégorie Pl/cat temps temps/km Vitesse
01:00:00              
1 691 ROMANE RASQUAIN <12 D 1 00:08:26 03:50 15.65
2 653 MATHIS KEUTGEN <12 H 1 00:08:27 03:50 15.62
3 5056 MAXENCE BAWIN <12 H 2 00:08:40 03:56 15.23
4 119 ANTOINE KALIN <12 H 3 00:08:44 03:58 15.11
5 318 ROMAIN HACKING <12 H 4 00:08:50 04:01 14.94
6 760 PAUL DARAS <12 H 5 00:08:52 04:02 14.89
7 772 OSCAR GILLES <16 H 1 00:08:53 04:02 14.86
8 565 HUGO MICHEL <12 H 6 00:09:00 04:05 14.67
9 555 ANOUCKA LACROIX <12 D 2 00:09:01 04:06 14.64
10 5051 DRICE CAMBRESIER <16 H 2 00:09:03 04:07 14.59
11 538 RAPHAËL DAIX <12 H 7 00:09:07 04:09 14.48
12 5098 JEROME DEBRA <16 H 3 00:09:11 04:10 14.37
13 5070 MARTIN BLALHERE <12 H 8 00:09:16 04:13 14.24
14 90 MATHIEU DORBOLO <12 H 9 00:09:17 04:13 14.22
15 5052 GABRIEL STIENS <16 H 4 00:09:17 04:13 14.22
16 694 MALO ROBERT <12 H 10 00:09:18 04:14 14.19
17 5077 MAURICE MEDART <16 H 5 00:09:19 04:14 14.17
18 5062 AMELIEN BAIKRICH ESPOIR H 1 00:09:20 04:15 14.14
19 5054 HUGO HENROT <12 H 11 00:09:23 04:16 14.07
20 231 LOUIS MERCENIER <12 H 12 00:09:27 04:18 13.97
21 664 ELIOTT LOBET <16 H 6 00:09:29 04:19 13.92
22 522 THÉO HERLA <12 H 13 00:09:31 04:20 13.87
23 805 TOM JOVENAU <16 H 7 00:09:32 04:20 13.85
24 517 MATHIAS GUILMOT <12 H 14 00:09:34 04:21 13.80
25 656 MAXENCE KEUTGEN <12 H 15 00:09:40 04:24 13.66
26 5040 ETIENNE SOHET <12 H 16 00:09:42 04:25 13.61
27 777 RENAN MARCHAL <12 H 17 00:09:47 04:27 13.49
28 736 ROMAIN DUYSINK <12 H 18 00:09:48 04:27 13.47
29 2951 JULIANNE THIJS <12 D 3 00:09:48 04:27 13.47
30 780 NATHAN BECKERS <12 H 19 00:09:50 04:28 13.42
31 567 PIERRE NEURAY <12 H 20 00:09:51 04:29 13.40
32 693 SACHA RIFFON <12 H 21 00:09:52 04:29 13.38
33 5059 JULES DEMARET <12 H 22 00:09:52 04:29 13.38
34 5083 MATHIAS DECLOUX <12 H 23 00:09:54 04:30 13.33
35 5067 BASILE PIROTTE <12 H 24 00:09:55 04:30 13.31
36 5060 SIMON COLLINGE <12 H 25 00:09:56 04:31 13.29
37 5069 VALENTIN PIROTTE <12 H 26 00:09:57 04:31 13.27
38 690 NELL RASQUAIN <12 D 4 00:09:58 04:32 13.24
39 553 THÉO KONAT <12 H 27 00:10:00 04:33 13.20
40 5043 ROBBIE BERGRATH <12 H 28 00:10:01 04:33 13.18
41 5076 VIRGILE SCHODER <12 H 29 00:10:01 04:33 13.18
42 2964 AYAERICH DE CHANGY <12 H 30 00:10:02 04:34 13.16
43 632 EUGÈNE DESSART <12 H 31 00:10:02 04:34 13.16
44 785 CÉLESTIN CLAJOT <12 H 32 00:10:03 04:34 13.13
45 758 PAULINE COLLARD <16 D 1 00:10:04 04:35 13.11
46 627 LUCIEN DANDOIT <12 H 33 00:10:06 04:35 13.07
47 641 BAPTISTE GUERRIER <12 H 34 00:10:06 04:35 13.07
48 144 SHEKINAH JEUKENS <12 D 5 00:10:06 04:35 13.07
49 5035 JULIEN HATERT <16 H 8 00:10:09 04:37 13.00
50 748 MAËLIG ROBART <12 H 35 00:10:12 04:38 12.94
51 657 ACHILLE KUNSCH <12 H 36 00:10:14 04:39 12.90
52 5045 DANILO LEPAGE <12 H 37 00:10:15 04:40 12.88
53 618 LOUIS BARTIER <12 H 38 00:10:17 04:40 12.84
54 600 OPHÉLIE LABYE <16 D 2 00:10:18 04:41 12.82
55 2950 LOIC THIJS <12 H 39 00:10:18 04:41 12.82
56 578 ANTHONY VANAKEN <12 H 40 00:10:20 04:42 12.77
57 645 INÈS HALUT <16 D 3 00:10:20 04:42 12.77
58 2953 ALIX THIJS <12 D 6 00:10:21 04:42 12.75
59 5090 LOANA GROMMEN <16 D 4 00:10:24 04:44 12.69
60 145 SHELOMI JEUKENS <12 H 41 00:10:27 04:45 12.63
61 5036 MAXIME LECOCQ <12 H 42 00:10:29 04:46 12.59
62 5087 EMMANUELLE SVEMEN <16 D 5 00:10:29 04:46 12.59
63 5050 ETHAN GENGOUX <12 H 43 00:10:31 04:47 12.55
64 532 ANTOINE BINET <12 H 44 00:10:32 04:47 12.53
65 586 ISMET AMIDI <16 H 9 00:10:32 04:47 12.53
66 5094 CHLOE DORBOLO <12 D 7 00:10:34 04:48 12.49
67 775 WYATT GUÉRIN <12 H 45 00:10:36 04:49 12.45
68 806 ETHAN LAPRAILLE <12 H 46 00:10:37 04:50 12.43
69 564 WILLIAM MACOURS <12 H 47 00:10:38 04:50 12.41
70 770 ELWAN DELCROS <12 H 48 00:10:40 04:51 12.38
71 2962 LIONEL ODEURS <12 H 49 00:10:42 04:52 12.34
72 534 NOAH BROUWERS <12 H 50 00:10:43 04:52 12.32
73 732 CORENTIN DENIS <12 H 51 00:10:43 04:52 12.32
74 5001 BAPTISTE LAKAYE <12 H 52 00:10:45 04:53 12.28
75 698 MAËL ROQUET <12 H 53 00:10:47 04:54 12.24
76 5000 NOAH GODEFROID <16 H 10 00:10:47 04:54 12.24
77 633 HUGO DRADIN <12 H 54 00:10:48 04:55 12.22
78 5038 XAVIER NEURAY <12 H 55 00:10:49 04:55 12.20
79 529 TOM MOTTET <12 H 56 00:10:50 04:55 12.18
80 5095 SOEL CAMMARATA <12 H 57 00:10:50 04:55 12.18
81 508 RENAUD DRÈZE <12 H 58 00:10:51 04:56 12.17
82 662 SYLVAIN LIMBREE <12 H 59 00:10:52 04:56 12.15
83 697 TÉA ROBERT <16 D 6 00:10:53 04:57 12.13
84 714 MAELLE WAUTELET <16 D 7 00:10:54 04:57 12.11
85 765 ALIX THAELS <12 H 60 00:10:55 04:58 12.09
86 5089 THIBAUT WILLEMS <12 H 61 00:10:55 04:58 12.09
87 677 SUZANNE MASUY <12 D 8 00:10:55 04:58 12.09
88 2966 THOMAS LIEBER <16 H 11 00:10:57 04:59 12.05
89 542 NAHEL DETAILLE <12 H 62 00:10:58 04:59 12.04
90 569 AGATHE PINEUR <12 D 9 00:10:58 04:59 12.04
91 692 CHARLY RIFFON <12 H 63 00:11:02 05:01 11.96
92 637 SAM FOCANT <12 H 64 00:11:02 05:01 11.96
93 506 TIM COLON <12 H 65 00:11:03 05:01 11.95
94 5085 OSCAR FLABA <12 H 66 00:11:03 05:01 11.95
95 317 NOAM HACKING <12 H 67 00:11:04 05:02 11.93
96 658 EVA KUNSCH <12 D 10 00:11:07 05:03 11.87
97 717 LÉO YAO <12 H 68 00:11:08 05:04 11.86
98 5003 NOE LESSIRE <12 H 69 00:11:09 05:04 11.84
99 556 ELLIOT LAMBERT <12 H 70 00:11:10 05:05 11.82
100 562 VIGO LUISI <12 H 71 00:11:10 05:05 11.82
101 533 BENJAMIN BOURGUIGNON <12 D 11 00:11:11 05:05 11.80
102 5079 OSCAR FROIDCOEUR <12 H 72 00:11:12 05:05 11.79
103 566 NOÉ MONTEFORTE <12 H 73 00:11:14 05:06 11.75
104 671 VICTOR MAROT <12 H 74 00:11:14 05:06 11.75
105 764 JULES HAMAITE <12 H 75 00:11:15 05:07 11.73
106 568 ACHILLE PETERS <12 H 76 00:11:17 05:08 11.70
107 631 CLARISSE DEGARD <12 D 12 00:11:18 05:08 11.68
108 709 LÉOPOLD VAN DAELE <12 H 77 00:11:18 05:08 11.68
109 649 MATTHIEU HOUPRESSE <12 H 78 00:11:18 05:08 11.68
110 803 EVA JOVENAU <16 D 8 00:11:19 05:09 11.66
111 613 GHAZI ALEWI <12 H 79 00:11:20 05:09 11.65
112 5023 CLARA COLLIN <12 D 13 00:11:22 05:10 11.61
113 5037 ANTOINE PIRET <12 H 80 00:11:22 05:10 11.61
114 135 AYMERIC LIEUTENANT <12 H 81 00:11:23 05:10 11.60
115 5002 BRIEUC DELVAUX <12 H 82 00:11:23 05:10 11.60
116 570 CORENTIN SCAUFLAIRE <12 H 83 00:11:23 05:10 11.60
117 579 SASHA VARANAVICIUS <12 H 84 00:11:25 05:11 11.56
118 5047 YSALINE DELIPE <12 D 14 00:11:27 05:12 11.53
119 548 SAMUEL DONY <12 H 85 00:11:30 05:14 11.48
120 537 EMILIEN CUPPENS <12 H 86 00:11:30 05:14 11.48
121 5058 GASPARD WOUTERS <12 H 87 00:11:33 05:15 11.43
122 619 EDITH BAURANT <16 D 9 00:11:35 05:16 11.40
123 5100 FLORIWE MOTTOUL <12 D 15 00:11:37 05:17 11.36
124 815 GUILLAUME ROUCOURT <16 H 12 00:11:39 05:18 11.33
125 2965 GREGOIRE DIEDEMEN VETERAN 1 1 00:11:41 05:19 11.30
126 763 CALEB COULON <12 H 88 00:11:44 05:20 11.25
127 5063 CHRISTOPHE MARDAGA <12 H 89 00:11:44 05:20 11.25
128 5010 AUGUSTIN LECLERCQ <12 H 90 00:11:46 05:21 11.22
129 778 INÈS MIESSEN <12 D 16 00:11:46 05:21 11.22
130 546 MARION DONA <12 D 17 00:11:46 05:21 11.22
131 5019 THOMAS BOVY <16 H 13 00:11:49 05:22 11.17
132 700 NATHAN ROQUET <12 H 91 00:11:51 05:23 11.14
133 779 PIERRE RANWEZ <12 H 92 00:11:52 05:24 11.12
134 705 TRISTAN SOETENS <12 H 93 00:11:56 05:25 11.06
135 5096 EZIO CAMMARATA <12 H 94 00:11:58 05:26 11.03
136 666 LÉOPOLD MACHIELS <12 H 95 00:11:59 05:27 11.02
137 5016 ARON BUNTINX <12 H 96 00:12:03 05:29 10.95
138 5020 NOA DE MARNEFFE <16 H 14 00:12:04 05:29 10.94
139 614 KARIM ALEWI <12 H 97 00:12:05 05:30 10.92
140 795 MATTEO GAUTHY <12 H 98 00:12:05 05:30 10.92
141 793 VICTOR FOSSION <12 H 99 00:12:05 05:30 10.92
142 585 JEANNE ZANELLA <12 D 18 00:12:06 05:30 10.91
143 572 MAËLLE STURBOIS <12 D 19 00:12:09 05:31 10.86
144 557 SIBYLLE LAMBERT <12 D 20 00:12:09 05:31 10.86
145 214 SACHA MERCENIER <12 H 100 00:12:10 05:32 10.85
146 621 THOMAS BEYRUS <12 H 101 00:12:11 05:32 10.83
147 686 EVA RAMET <12 D 21 00:12:12 05:33 10.82
148 530 CÉLESTINE BERNARD <16 D 10 00:12:13 05:33 10.80
149 5053 AMELIE RULOT <16 D 11 00:12:13 05:33 10.80
150 792 YSALINE DOCK <12 D 22 00:12:13 05:33 10.80
151 639 EMILIE GILSON <12 D 23 00:12:14 05:34 10.79
152 683 GILLES PAELEMAN <12 H 102 00:12:14 05:34 10.79
153 640 ROMANE GILSON <12 D 24 00:12:14 05:34 10.79
154 5064 LALOU LAMBOTTE <12 D 25 00:12:15 05:34 10.78
155 574 CLARA SWITTEN <16 D 12 00:12:15 05:34 10.78
156 5042 THIBAUD SINISTRI <12 H 103 00:12:15 05:34 10.78
157 2974 NICOLA WEBER <16 H 15 00:12:20 05:36 10.70
158 611 ERINE ABSIL <12 D 26 00:12:21 05:37 10.69
159 2957 NOELIE CHINET <12 D 27 00:12:24 05:38 10.65
160 583 NATHAN WILLEMS <12 D 28 00:12:27 05:40 10.60
161 2987 ANNA LIGOT <12 D 29 00:12:29 05:40 10.57
162 712 MATHIAS VILAIN <12 H 104 00:12:30 05:41 10.56
163 5044 ADRIEN WERY <12 H 105 00:12:31 05:41 10.55
164 2979 JULES FERIR <12 H 106 00:12:31 05:41 10.55
165 751 JULIA SWITTEN <12 D 30 00:12:31 05:41 10.55
166 646 ZOÉ HALUT <12 D 31 00:12:32 05:42 10.53
167 2972 JEAN-CHRISTOPHE DELGOMBE <16 H 16 00:12:32 05:42 10.53
168 818 ETHAN SPRUYT <12 H 107 00:12:32 05:42 10.53
169 701 EMMA ROSSELLI <12 D 32 00:12:33 05:42 10.52
170 2955 FLORA CHABOTHIER <12 D 33 00:12:33 05:42 10.52
171 5091 ROMANE BERTRAND <12 D 34 00:12:34 05:43 10.50
172 638 LUCIEN GEORGES <12 H 108 00:12:36 05:44 10.48
173 573 CHARLINE STURBOIS <12 D 35 00:12:36 05:44 10.48
174 742 SIMON LÉGA <12 H 109 00:12:38 05:45 10.45
175 5009 VALENTIN KLINKERBERG <12 H 110 00:12:39 05:45 10.43
176 642 ALIX HALUT <12 D 36 00:12:41 05:46 10.41
177 5065 HELOISE GRENSON <12 D 37 00:12:41 05:46 10.41
178 668 CHARLOTTE MAROT <12 D 38 00:12:41 05:46 10.41
179 744 MATISSE LUTS <12 H 111 00:12:43 05:47 10.38
180 661 EMMA LIEBER <12 D 39 00:12:44 05:47 10.37
181 681 CAMILLE MATHONET <12 D 40 00:12:44 05:47 10.37
182 535 ANTOINE CARLISI <12 H 112 00:12:46 05:48 10.34
183 739 NOHA GUILLITRE <12 H 113 00:12:46 05:48 10.34
184 2960 AUGUSTIN EVRARD <12 H 114 00:12:51 05:50 10.27
185 628 ANGELINA DAROT <12 D 41 00:12:52 05:51 10.26
186 2976 EMELYNE DAXHELET <12 D 42 00:12:55 05:52 10.22
187 5027 SORAYA DAWANCE <16 D 13 00:12:55 05:52 10.22
188 757 AMORY WAUTERS <12 H 115 00:12:57 05:53 10.19
189 5028 NILLA FANIA <16 D 14 00:12:58 05:54 10.18
190 2984 BASILE KEMPENEERS <12 H 116 00:12:59 05:54 10.17
191 630 GABRIEL DAROT <12 H 117 00:13:02 05:55 10.13
192 505 LENA CHEVALIER <12 D 43 00:13:04 05:56 10.10
193 2975 MELUSINE GOODENNE <12 D 44 00:13:11 06:00 10.01
194 2963 LOUIS DE CHANGY <12 H 118 00:13:15 06:01 9.96
195 5015 LAUREEN DELLE DONNE <12 D 45 00:13:25 06:06 9.84
196 5029 ANTOINE MATHIEU <12 H 119 00:13:25 06:06 9.84
197 5099 MANON MOTTOUL <12 D 46 00:13:26 06:06 9.83
198 2970 TEO WEBER <12 H 120 00:13:27 06:07 9.81
199 799 CHARLOTTE HENRY <12 D 47 00:13:27 06:07 9.81
200 728 SYLVINE BOLLY <16 D 15 00:13:28 06:07 9.80
201 595 AGON IDRIZI <12 H 121 00:13:28 06:07 9.80
202 737 ALICE FIASSE <12 D 48 00:13:29 06:08 9.79
203 612 SATOUF ALEEWI <12 H 122 00:13:36 06:11 9.71
204 539 CLÉMENTINE DAMRY <12 D 49 00:13:37 06:11 9.69
205 5066 LAURA ROUCHE <16 D 16 00:13:38 06:12 9.68
206 5031 MAUREEN BERNARD <16 D 17 00:13:38 06:12 9.68
207 713 GRÉGOIRE WAUTELET <12 H 123 00:13:39 06:12 9.67
208 652 THIBAULT HOUPRESSE <12 H 124 00:13:44 06:15 9.61
209 794 LILY GAILLARD <12 D 50 00:13:48 06:16 9.57
210 679 ELVIS MATAGNE <12 H 125 00:13:48 06:16 9.57
211 620 LALY BERCK XXX   00:13:49 06:17 9.55
212 741 ANAÏS LAMPE <12 D 51 00:13:52 06:18 9.52
213 2981 ELINE BORREY <12 D 52 00:13:53 06:19 9.51
214 592 MIZAFÉRÉ FAZLIN <16 D 18 00:13:54 06:19 9.50
215 622 BAPTISTE BORTOLOTTI <12 H 126 00:13:56 06:20 9.47
216 804 NEL JOVENAU <12 D 53 00:13:59 06:21 9.44
217 667 MATHÉO MACHIELS <12 H 127 00:14:00 06:22 9.43
218 722 THÉA ZORRILLA-SANCHEZ <12 D 54 00:14:00 06:22 9.43
219 540 ELISE DERMIEN <12 D 55 00:14:04 06:24 9.38
220 571 VIOLETTE SOHET <12 D 56 00:14:06 06:25 9.36
221 684 NATHAN PAQUAY <12 H 128 00:14:07 06:25 9.35
222 665 ALICE LOMMEL <16 D 19 00:14:07 06:25 9.35
223 718 YAO YULAI <12 H 129 00:14:08 06:25 9.34
224 5014 EMY RULOT <12 D 57 00:14:09 06:26 9.33
225 5011 LILOU DE MARNEFFE <12 D 58 00:14:09 06:26 9.33
226 5026 MATHIAS DEGHISLAGE <12 H 130 00:14:11 06:27 9.31
227 5082 CAMILLE DENEUMOSTIER <12 H 131 00:14:11 06:27 9.31
228 5022 MATEO DELVAUX <12 H 132 00:14:11 06:27 9.31
229 721 THAÎS ZORRILLA-SANCHEZ <12 D 59 00:14:12 06:27 9.30
230 5086 LANGE SWEMEN <12 H 133 00:14:12 06:27 9.30
231 5081 PIERRE DENEUMOSTIEA <16 H 17 00:14:12 06:27 9.30
232 791 LUCY DOCK <12 D 60 00:14:14 06:28 9.27
233 746 NOÉ MUSETTE <12 H 134 00:14:16 06:29 9.25
234 716 ROSE WEYRICH <12 D 61 00:14:17 06:30 9.24
235 5025 GASPARD VAN DEN BERGH <12 H 135 00:14:18 06:30 9.23
236 5080 LEA CARROZZI <12 D 62 00:14:20 06:31 9.21
237 726 MATHIS BESSEMANS <12 H 136 00:14:21 06:31 9.20
238 5084 ALYSSA DETRY <12 D 63 00:14:24 06:33 9.17
239 660 NELL LHERMITTE <12 D 64 00:14:24 06:33 9.17
240 774 KAYLA GUÉRIN <12 D 65 00:14:25 06:33 9.16
241 5041 SARAH GARCIA-CABALIE <12 D 66 00:14:26 06:34 9.15
242 609 YANNIS VOLONT <12 H 137 00:14:30 06:35 9.10
243 544 MAËLLE DILIBERTO <12 D 67 00:14:30 06:35 9.10
244 2986 LEA HERBETOT <12 D 68 00:14:32 06:36 9.08
245 626 TOM CHOI <12 H 138 00:14:36 06:38 9.04
246 560 FAUSTINE LUISI <12 D 69 00:14:36 06:38 9.04
247 5093 CLARA DUBOIS <12 D 70 00:14:45 06:42 8.95
248 812 EMMA NASSOGNE <12 D 71 00:14:50 06:45 8.90
249 597 TOM JADOT <12 H 139 00:14:51 06:45 8.89
250 601 NÉKHATI NEZIRI <16 H 18 00:14:53 06:46 8.87
251 5075 ALISIA SLAVOVA <12 D 72 00:14:57 06:48 8.83
252 695 NOËLLA ROBERT <12 D 73 00:14:58 06:48 8.82
253 730 MATHIS DEGRUNE <12 H 140 00:15:01 06:50 8.79
254 756 ARNAUD VIEMONT <12 H 141 00:15:02 06:50 8.78
255 5088 LOUISE SVEMEN <12 D 74 00:15:05 06:51 8.75
256 582 EMY WARDEGA <12 D 75 00:15:15 06:56 8.66
257 2983 EMERICK BLANCHY <12 H 142 00:15:28 07:02 8.53
258 1189 ADELA TAFILAJ <12 D 76 00:15:33 07:04 8.49
259 782 ESTELLE BECKERS <12 D 77 00:15:33 07:04 8.49
260 2977 MARION DEMBLON <12 D 78 00:15:38 07:06 8.44
261 545 MARGAUX DILIBERTO <12 D 79 00:15:38 07:06 8.44
262 5048 EMY SULON <12 D 80 00:15:38 07:06 8.44
263 754 LOUISE SWITTEN <12 D 81 00:15:40 07:07 8.43
264 2980 MARINE DEMBLON <12 D 82 00:15:40 07:07 8.43
265 790 JULES DISTATTE <12 H 143 00:15:41 07:08 8.42
266 740 LÉA HUSKIN <12 D 83 00:15:47 07:10 8.36
267 616 EMMA ALLA <12 D 84 00:15:50 07:12 8.34
268 711 LUCIEN VILAIN <12 D 85 00:15:50 07:12 8.34
269 2971 LISA MIGNOLET <12 D 86 00:15:50 07:12 8.34
270 708 LOU THIRY <12 D 87 00:15:51 07:12 8.33
271 581 ELLA WACOMONT <12 D 88 00:15:53 07:13 8.31
272 723 JUSTINE ATTENELLE <16 D 20 00:15:54 07:14 8.30
273 724 MATHIS ATTENELLE <12 H 144 00:15:54 07:14 8.30
274 706 AARON SURAY <12 H 145 00:16:03 07:18 8.22
275 5046 RAFAELLA LEPAGE <12 D 89 00:16:05 07:19 8.21
276 503 LUCIE ANSIAS <12 D 90 00:16:15 07:23 8.12
277 710 LILOU VANHOVE <12 D 91 00:16:43 07:36 7.90
278 2969 TAHYSSIA ESTIENNE <16 D 21 00:16:49 07:39 7.85
279 747 JADE PALLESCHI <12 D 92 00:16:56 07:42 7.80
280 771 MARIE GILLES ESPOIR D 1 00:16:59 07:43 7.77
281 604 LISA PESCH <12 D 93 00:17:04 07:45 7.73
282 607 ELMA VITIJA <16 D 22 00:17:04 07:45 7.73
283 590 CÉLIA BONTE <16 D 23 00:17:05 07:46 7.73
284 5018 SEAD HASANI <12 H 146 00:17:05 07:46 7.73
285 605 MARIE SIDOUMOU <12 D 94 00:17:05 07:46 7.73
286 588 RINESA AZIMA <12 D 95 00:17:05 07:46 7.73
287 593 MILENA FLERES <12 D 96 00:17:06 07:46 7.72
288 5078 UGO GREGOIRE <12 H 147 00:17:09 07:48 7.70
289 5024 GASTON THIRY <12 H 148 00:18:11 08:16 7.26
290 2968 LOIC DUCHESNE <16 H 19 00:19:48 09:00 6.67
291 2973 ALICIA ORBAN <16 D 24 00:20:04 09:07 6.58
292 762 ROBIN COLLIGNON <12 H 149 00:20:15 09:12 6.52
293 2978 ALAN JANSSEN <12 H 150 00:20:47 09:27 6.35
               
Nos dernières videos